AirNav   Air Wisconsin Up To $57,000 Bonus
 
 1253 users online  

9NR7 Triple F Airpark
Salemburg, North Carolina, USA

GOING TO SALEMBURG?


FAA INFORMATION EFFECTIVE 01 DECEMBER 2022

Location

FAA Identifier: 9NR7
Lat/Long: 35-01-06.0000N 078-33-57.0000W
35-01.100000N 078-33.950000W
35.0183333,-78.5658333
(estimated)
Elevation: 148 ft. / 45 m (estimated)
From city: 4 miles W of SALEMBURG, NC
Time zone: UTC -5 (UTC -4 during Daylight Saving Time)
Zip code: 28318

Airport Operations

Airport use: Private use. Permission required prior to landing
Activation date: 10/2008
Control tower: no
ARTCC: WASHINGTON CENTER
FSS: RALEIGH FLIGHT SERVICE STATION
Attendance: UNATNDD
Wind indicator: yes
Segmented circle: no

Airport Communications

WX AWOS-3 at CTZ (10 nm E): 119.125 (910-592-7488)
WX ASOS at FAY (16 nm W): 121.25 (910-484-1546)

Nearby radio navigation aids

VOR radial/distance  VOR name  Freq  Var
FAYr087/15.3FAYETTEVILLE VOR/DME114.8504W

 
NDB name  Hdg/Dist  Freq  Var  ID
CLINTON294/10.441209WCTZ -.-. - --..
HARNETT176/25.441708WHQT .... --.- -

Airport Services

Runway Information

Runway 9/27

Dimensions: 2200 x 70 ft. / 671 x 21 m
Surface: turf
RUNWAY 9  RUNWAY 27
Traffic pattern: leftleft
Obstructions: 50 ft. trees, 200 ft. from runwaynone

Airport Ownership and Management from official FAA records

Ownership: Privately-owned
Owner: M. D. FAIRCLOTH
3455 AUTRYVILLE RD.
AUTRYVILLE, NC 28318
Phone 910-531-3826
Manager: FREDDIE HERRING
760 MURPHY RD.
CLINTON, NC 28328
Phone 910-990-6324

Airport Operational Statistics

Aircraft based on the field: 1
Single engine airplanes: 1
    

Additional Remarks

FOR CD CTC WASHINGTON ARTCC AT 703-771-3587.

Instrument Procedures

There are no published instrument procedures at 9NR7.

Some nearby airports with instrument procedures:

KCTZ - Clinton-Sampson County Airport (10 nm E)
KFAY - Fayetteville Regional Airport/Grannis Field (16 nm W)
KFBG - Simmons Army Airfield (19 nm W)
KHRJ - Harnett Regional Jetport Airport (23 nm N)
KPOB - Pope Army Airfield (24 nm NW)
 
Loc | Ops | Rwys | IFR | FBO | Links
Com | Nav | Svcs | Stats | Notes
Aerial photo
No photo
 
Sectional chart

 
Airport distance calculator
Flying to Triple F Airpark? Find the distance to fly.

From to 9NR7

Sunrise and sunset
Times for 09-Dec-2022
 Local
(UTC-5)
 Zulu
(UTC)
Morning civil twilight06:4411:44
Sunrise07:1212:12
Sunset17:0222:02
Evening civil twilight17:3022:30

Current date and time
Zulu (UTC)  10-Dec-2022 01:32:03
Local (UTC-5)  09-Dec-2022 20:32:03
 
METAR
KCTZ 
10nm E 
100115Z AUTO 03004KT 10SM OVC060 10/06 A3022 RMK AO2 T01000056
KFAY 
16nm W 
100053Z 05006KT 10SM OVC055 10/04 A3020 RMK AO2 SLP223 T01000044
KFBG 
18nm W 
092155Z AUTO 04005KT 10SM CLR 11/06 A3016 RMK AO2 SLP216 T01110056
TAF
KFAY 
16nm W 
091740Z 0918/1018 03008KT P6SM SCT020 BKN030 OVC050 FM091900 03008KT P6SM SCT025 BKN035 BKN050 TEMPO 1006/1010 6SM -RA OVC035
KFBG 
18nm W 
091800Z 0918/1024 04008KT 9999 FEW020 BKN025 QNH3016INS BECMG 0924/1001 04006KT 9999 SCT024 BKN040 QNH3021INS TX13/0920Z TN06/1011Z
NOTAMs
Click for the latest NOTAMs
NOTAMs are issued by the DoD/FAA and will open in a separate window not controlled by AirNav.

 

 
 

Would you like to see your business listed on this page?

 If your business provides an interesting product or service to pilots, flight crews, aircraft, or users of the Triple F Airpark, you should consider listing it here.  To start the listing process, click on the button below
 
Add a business
 

Other Pages about Triple F Airpark

Update a link
 
Copyright © AirNav, LLC. All rights reserved. Privacy Policy  Contact